Regional Weather Roundup
Issued by NWS Boston, MA

Home | Current Version | Previous Version | Text Only | Print | Product List | Glossary On
Versions: 1 2 3 4 5 6 7 8 9 10 11 12 13 14 15 16 17 18 19 20 21 22 23 24 25 26 27 28 29 30 31 32 33 34 35 36 37 38 39 40 41 42 43 44 45 46 47 48 49 50
000
ASUS41 KBOX 230910
RWRBOX

REGIONAL WEATHER ROUNDUP
NATIONAL WEATHER SERVICE TAUNTON MA
500 AM EDT TUE SEP 23 2014

NOTE:  "FAIR" INDICATES FEW OR NO CLOUDS BELOW 12,000 FEET WITH NO
SIGNIFICANT WEATHER AND/OR OBSTRUCTIONS TO VISIBILITY.  THE FOLLOWING
OBSERVATION LOCATIONS DO NOT REPORT PRESENT WEATHER...PROVINCETOWN...
SMITHFIELD...BLOCK ISLAND...KEENE...AND OXFORD.

MAZALL-231000-
EASTERN MASSACHUSETTS

CITY           SKY/WX    TMP DP  RH WIND       PRES   REMARKS
BOSTON         CLEAR     50  39  66 W6        30.18R
BEVERLY        CLEAR     42  37  82 CALM      30.17R
LAWRENCE       CLEAR     43  39  86 S3        30.19R
BEDFORD        CLEAR     39  38  96 CALM      30.17R
BLUE HILL        N/A     44  38  79 NW8       30.16R
NORWOOD        CLEAR     35  32  88 CALM      30.18R
MARSHFIELD     NOT AVBL
PLYMOUTH       CLEAR     42  36  79 NW5       30.19R
TAUNTON        CLEAR     38  35  89 CALM      30.19R
NEW BEDFORD    CLEAR     45  40  82 CALM      30.18R
$$

MAZALL-231000-
CAPE COD AND THE ISLANDS

CITY           SKY/WX    TMP DP  RH WIND       PRES   REMARKS
FALMOUTH       CLEAR     45  39  81 NW7       30.18R
HYANNIS        CLEAR     50  40  68 W5        30.16R
CHATHAM        CLEAR     54  38  54 N7        30.16R
PROVINCETOWN   CLEAR     54  37  54 NW17      30.17R
NANTUCKET      PTCLDY    54  41  61 N9        30.17R
MARTHAS VNYRD  CLEAR     44  38  79 CALM      30.18R
$$

MAZALL-231000-
CENTRAL AND WESTERN MASSACHUSETTS

CITY           SKY/WX    TMP DP  RH WIND       PRES   REMARKS
WORCESTER      CLEAR     42  37  82 W6        30.18R
FITCHBURG      CLEAR     41  38  89 CALM      30.19R
ORANGE         CLEAR     37  35  92 CALM      30.18R
SPRINGFIELD    CLEAR     37  36  93 NE2       30.19R FOG
WESTFIELD      CLEAR     40  38  93 CALM      30.19R
NORTH ADAMS    CLEAR     38  36  92 CALM      30.22R
PITTSFIELD     CLEAR     44  39  82 NW6       30.19R
$$

RIZALL-231000-
RHODE ISLAND

CITY           SKY/WX    TMP DP  RH WIND       PRES   REMARKS
PROVIDENCE     CLEAR     45  39  79 W6        30.20R
NEWPORT        CLEAR     50  40  68 NW5       30.19R
BLOCK ISLAND   CLEAR     52  37  58 N7        30.20R
WESTERLY       CLEAR     43  38  82 CALM      30.21R
$$

CTZALL-231000-
CONNECTICUT

CITY           SKY/WX    TMP DP  RH WIND       PRES   REMARKS
BRADLEY INTL   CLEAR     46  40  79 SW3       30.19R
HARTFORD       CLEAR     48  41  76 S3        30.20R
BRIDGEPORT     CLEAR     49  42  77 NW3       30.23R
DANBURY        CLEAR     41  38  89 CALM      30.23R
GROTON         CLEAR     44  41  89 CALM      30.20R
NEW HAVEN      CLEAR     51  42  71 W3        30.22R
CHESTER        FAIR      45  41  87 W3        30.21R
MERIDEN        CLEAR     41  38  89 CALM      30.22R
WILLIMANTIC    MOCLDY    41  39  93 CALM      30.21R
OXFORD         CLEAR     41  34  75 CALM      30.23R
$$

MEZ002-015-021-024-NHZ003-005-008-011-012-014-VTZ005-008-231000-
NORTHERN NEW ENGLAND

CITY           SKY/WX    TMP DP  RH WIND       PRES   REMARKS
PORTLAND ME    CLEAR     42  36  79 SW6       30.14R
BANGOR ME      CLEAR     43  36  76 W5        30.07R
CONCORD NH     CLEAR     42  37  82 E3        30.16R
MANCHESTER NH  CLEAR     49  37  63 W7        30.15R
NASHUA NH      CLEAR     43  40  89 CALM      30.17R
PORTSMOUTH NH  CLEAR     45  39  77 SW5       30.15R
JAFFREY NH     CLEAR     44  37  76 S5        30.16R
KEENE NH       CLEAR     37  28  70 CALM      30.20R
BURLINGTON VT  CLOUDY    49  41  74 S5        30.18R
MT. WASHINGTON FOG       25  25 100 NW59G66     N/A  VSB 1/16WCI   3
$$

NYZ052-076-231000-
EASTERN NEW YORK

CITY           SKY/WX    TMP DP  RH WIND       PRES   REMARKS
ALBANY         CLEAR     46  42  86 CALM      30.23R
NEW YORK CITY  PTCLDY    54  41  61 N10       30.22R
$$

ANZALL-231000-
MARINE OBSERVATIONS

STATION/POSITION TIME  TEMP    WIND        PRES    VSBY  WAVE
                       AIR SEA DIR/SP/G                  HT/PER
                 (UTC) (F)     (DEG/KT/KT) (MB)    (MI)  (FT/S)
BOSTON BUOY      0850   54 60  330/ 14/ 17 1021.9R         3/11
BUZZARDS BAY     0800          330/ 13/ 15 1022.2R
NANTUCKET SOUND  0850   56 66  330/ 16/ 19 1021.1R         2/ 4
MASS BAY-STELLWA 0804   54 61  300/ 12/ 16   N/A    1 7/8  3/11
ISLE OF SHOALS   0900   51     280/ 12/ 14 1020.7R
S OF BLOCK IS    0808      66                N/A           5/ 9
$$

......................KEY.........................
  SKY/WX - SKY CONDITION/PRESENT WEATHER
  TMP    - TEMPERATURE IN FAHRENHEIT
  DWPT   - DEWPOINT IN FAHRENHEIT
  RH     - RELATIVE HUMIDITY IN PERCENT
  WIND   - DIRECTION AND SPEED IN MPH
  PRES   - MEAN SEA LEVEL PRESSURE IN INCHES OF HG
  WCI    - WIND CHILL INDEX
  VSB    - VISIBILITY IN MILES
  HX     - HEAT INDEX
  TC     - TEMPERATURE IN CELSIUS
  VRB    - VARIABLE WIND DIRECTION
  N/A    - NOT AVAILABLE


USA.gov is the U.S. government's official web portal to all federal, state and local government web resources and services.